| time (UTC) | temp F | wind direction | speed MPH | gust MPH | rain 1hr in | rain 24hr in | rain mn in | humidity % | barometer mb |
| 20260506195118 | 38 | 135 | 2.0 | 4.0 | 0.12 | 0.79 | 0.00 | 73 | 1021.7 |
| 20260506194303 | 38 | 22 | 1.0 | 3.0 | 0.14 | 0.78 | 0.00 | 71 | 1021.8 |
| 20260506193433 | 38 | 22 | 3.0 | 5.0 | 0.17 | 0.78 | 0.00 | 73 | 1021.9 |
| 20260506192453 | 39 | 112 | 2.0 | 6.0 | 0.21 | 0.76 | 0.00 | 80 | 1021.9 |
| 20260506191638 | 38 | 68 | 3.0 | 6.0 | 0.22 | 0.75 | 0.00 | 76 | 1022.0 |
| 20260506190736 | 38 | 45 | 1.0 | 4.0 | 0.26 | 0.74 | 0.00 | 73 | 1022.0 |
| 20260506185801 | 38 | 338 | 1.0 | 3.0 | 0.30 | 0.73 | 0.00 | 71 | 1022.1 |
| 20260506184929 | 38 | 45 | 3.0 | 5.0 | 0.30 | 0.70 | 0.00 | 74 | 1022.2 |
| 20260506184013 | 38 | 22 | 3.0 | 6.0 | 0.28 | 0.67 | 0.00 | 72 | 1022.2 |
| 20260506183148 | 38 | 22 | 2.0 | 5.0 | 0.27 | 0.65 | 0.00 | 77 | 1022.3 |
| 20260506182213 | 37 | 45 | 2.0 | 4.0 | 0.23 | 0.59 | 0.00 | 80 | 1022.4 |
| 20260506181248 | 37 | 68 | 3.0 | 6.0 | 0.19 | 0.54 | 0.00 | 81 | 1022.5 |
| 20260506180505 | 38 | 0 | 1.0 | 3.0 | 0.14 | 0.48 | 0.00 | 85 | 1022.5 |
| 20260506180338 | 38 | 0 | 1.0 | 3.0 | 0.14 | 0.48 | 0.00 | 85 | 1022.5 |
| 20260506175413 | 38 | 0 | 3.0 | 7.0 | 0.10 | 0.44 | 0.00 | 86 | 1022.5 |
| 20260506174613 | 38 | 0 | 3.0 | 6.0 | 0.08 | 0.42 | 0.00 | 87 | 1022.5 |
| 20260506173913 | 37 | 338 | 3.0 | 5.0 | 0.07 | 0.42 | 0.00 | 89 | 1022.4 |
| 20260506173628 | 37 | 338 | 3.0 | 5.0 | 0.07 | 0.42 | 0.00 | 89 | 1022.4 |
| 20260506172659 | 36 | 22 | 4.0 | 7.0 | 0.06 | 0.40 | 0.00 | 89 | 1022.5 |
| 20260506171758 | 35 | 338 | 1.0 | 4.0 | 0.06 | 0.40 | 0.00 | 92 | 1022.5 |
| 20260506171027 | 34 | 338 | 3.0 | 6.0 | 0.06 | 0.40 | 0.00 | 92 | 1022.4 |
| 20260506170823 | 34 | 338 | 3.0 | 6.0 | 0.06 | 0.40 | 0.00 | 92 | 1022.4 |
| 20260506165828 | 34 | 0 | 3.0 | 6.0 | 0.06 | 0.39 | 0.00 | 93 | 1022.2 |
| 20260506164138 | 33 | 338 | 2.0 | 4.0 | 0.06 | 0.39 | 0.00 | 93 | 1022.2 |
| 20260506163201 | 33 | 338 | 2.0 | 5.0 | 0.06 | 0.38 | 0.00 | 93 | 1022.2 |
| 20260506162401 | 33 | 0 | 4.0 | 7.0 | 0.06 | 0.37 | 0.00 | 93 | 1021.9 |
| 20260506161408 | 33 | 0 | 4.0 | 7.0 | 0.04 | 0.36 | 0.00 | 94 | 1021.6 |
| 20260506160408 | 33 | 338 | 3.0 | 5.0 | 0.03 | 0.35 | 0.00 | 94 | 1021.6 |
| 20260506154653 | 33 | 315 | 3.0 | 9.0 | 0.04 | 0.36 | 0.00 | 94 | 1021.8 |
| 20260506153726 | 33 | 338 | 2.0 | 5.0 | 0.03 | 0.35 | 0.00 | 94 | 1021.6 |
| 20260506152828 | 32 | 338 | 4.0 | 10.0 | 0.02 | 0.35 | 0.00 | 94 | 1021.4 |
| 20260506152017 | 32 | 338 | 2.0 | 5.0 | 0.01 | 0.34 | 0.00 | 94 | 1021.4 |
| 20260506151921 | 32 | 338 | 2.0 | 5.0 | 0.01 | 0.34 | 0.00 | 94 | 1021.4 |
| 20260506151013 | 32 | 315 | 4.0 | 7.0 | 0.01 | 0.35 | 0.00 | 95 | 1021.3 |
| 20260506150355 | 32 | 338 | 3.0 | 8.0 | 0.01 | 0.35 | 0.00 | 95 | 1021.3 |
| 20260506150113 | 32 | 338 | 3.0 | 8.0 | 0.01 | 0.35 | 0.00 | 95 | 1021.3 |
| 20260506145138 | 32 | 0 | 1.0 | 5.0 | 0.00 | 0.35 | 0.00 | 94 | 1021.2 |
| 20260506144313 | 32 | 0 | 0.0 | 0.0 | 0.00 | 0.36 | 0.00 | 95 | 1021.2 |
| 20260506143458 | 32 | 0 | 0.0 | 0.0 | 0.00 | 0.37 | 0.00 | 95 | 1021.0 |
| 20260506142520 | 32 | 0 | 0.0 | 0.0 | 0.00 | 0.38 | 0.00 | 95 | 1020.9 |
| 20260506141558 | 32 | 0 | 0.0 | 0.0 | 0.00 | 0.39 | 0.00 | 95 | 1020.9 |
| 20260506141504 | 32 | 0 | 0.0 | 0.0 | 0.00 | 0.40 | 0.00 | 95 | 1020.9 |
| 20260506140741 | 32 | 0 | 0.0 | 0.0 | 0.00 | 0.40 | 0.00 | 95 | 1020.9 |
| 20260506140005 | 32 | 0 | 0.0 | 0.0 | 0.00 | 0.41 | 0.00 | 95 | 1020.8 |
| 20260506135811 | 32 | 0 | 0.0 | 0.0 | 0.00 | 0.41 | 0.00 | 95 | 1020.8 |
| 20260506135021 | 32 | 0 | 0.0 | 0.0 | 0.00 | 0.42 | 0.00 | 95 | 1020.7 |
| 20260506134948 | 32 | 0 | 0.0 | 0.0 | 0.00 | 0.42 | 0.00 | 95 | 1020.7 |
| 20260506134026 | 32 | 0 | 0.0 | 0.0 | 0.00 | 0.43 | 0.00 | 95 | 1020.6 |
| 20260506133141 | 32 | 0 | 0.0 | 0.0 | 0.00 | 0.43 | 0.00 | 95 | 1020.6 |
| 20260506132243 | 32 | 0 | 0.0 | 0.0 | 0.00 | 0.44 | 0.00 | 95 | 1020.3 |
| 20260506131500 | 32 | 0 | 0.0 | 0.0 | 0.00 | 0.45 | 0.00 | 95 | 1020.1 |
| 20260506131413 | 32 | 0 | 0.0 | 0.0 | 0.00 | 0.45 | 0.00 | 95 | 1020.1 |
| 20260506130443 | 32 | 0 | 0.0 | 0.0 | 0.00 | 0.45 | 0.00 | 95 | 1019.8 |
| 20260506125746 | 32 | 0 | 0.0 | 0.0 | 0.00 | 0.45 | 0.00 | 95 | 1019.9 |
| 20260506125638 | 32 | 0 | 0.0 | 0.0 | 0.00 | 0.45 | 0.00 | 95 | 1019.9 |
| 20260506124648 | 32 | 0 | 0.0 | 0.0 | 0.00 | 0.46 | 0.00 | 95 | 1019.7 |
| 20260506123758 | 32 | 0 | 0.0 | 0.0 | 0.00 | 0.46 | 0.00 | 95 | 1019.7 |
| 20260506123713 | 32 | 0 | 0.0 | 0.0 | 0.00 | 0.46 | 0.00 | 95 | 1019.7 |
| 20260506122849 | 32 | 0 | 0.0 | 0.0 | 0.01 | 0.46 | 0.00 | 95 | 1019.5 |
| 20260506122020 | 32 | 0 | 0.0 | 0.0 | 0.01 | 0.46 | 0.00 | 95 | 1019.6 |
| 20260506121221 | 32 | 0 | 0.0 | 0.0 | 0.01 | 0.47 | 0.00 | 95 | 1019.5 |
| 20260506120303 | 32 | 0 | 0.0 | 0.0 | 0.01 | 0.47 | 0.00 | 95 | 1019.4 |
| 20260506115458 | 32 | 0 | 0.0 | 0.0 | 0.01 | 0.48 | 0.00 | 95 | 1019.3 |
| 20260506114658 | 32 | 0 | 0.0 | 0.0 | 0.01 | 0.48 | 0.00 | 95 | 1019.3 |
| 20260506113813 | 32 | 0 | 0.0 | 0.0 | 0.01 | 0.50 | 0.00 | 95 | 1019.3 |
| 20260506112959 | 32 | 0 | 0.0 | 0.0 | 0.00 | 0.50 | 0.00 | 95 | 1019.1 |
| 20260506112023 | 32 | 0 | 0.0 | 0.0 | 0.00 | 0.50 | 0.00 | 95 | 1018.9 |
| 20260506111401 | 32 | 0 | 0.0 | 0.0 | 0.00 | 0.51 | 0.00 | 95 | 1018.7 |
| 20260506111043 | 32 | 0 | 0.0 | 0.0 | 0.00 | 0.51 | 0.00 | 95 | 1018.7 |
| 20260506105505 | 32 | 0 | 0.0 | 0.0 | 0.00 | 0.52 | 0.00 | 95 | 1018.5 |
| 20260506105258 | 32 | 0 | 0.0 | 0.0 | 0.00 | 0.52 | 0.00 | 95 | 1018.5 |
| 20260506104408 | 32 | 0 | 0.0 | 0.0 | 0.00 | 0.53 | 0.00 | 95 | 1018.4 |
| 20260506103916 | 32 | 0 | 0.0 | 0.0 | 0.00 | 0.53 | 0.00 | 95 | 1018.4 |
| 20260506103520 | 32 | 0 | 0.0 | 0.0 | 0.00 | 0.53 | 0.00 | 95 | 1018.4 |
| 20260506101653 | 32 | 0 | 0.0 | 0.0 | 0.00 | 0.55 | 0.00 | 95 | 1018.3 |
| 20260506100738 | 32 | 0 | 0.0 | 0.0 | 0.00 | 0.56 | 0.00 | 95 | 1018.4 |
| 20260506095005 | 32 | 0 | 0.0 | 0.0 | 0.00 | 0.57 | 0.00 | 95 | 1018.5 |
| 20260506094956 | 32 | 0 | 0.0 | 0.0 | 0.00 | 0.57 | 0.00 | 95 | 1018.5 |
| 20260506094148 | 32 | 0 | 0.0 | 0.0 | 0.00 | 0.57 | 0.00 | 95 | 1018.5 |
| 20260506093914 | 32 | 0 | 0.0 | 0.0 | 0.00 | 0.58 | 0.00 | 95 | 1018.0 |
| 20260506093228 | 32 | 0 | 0.0 | 0.0 | 0.00 | 0.57 | 0.00 | 95 | 1018.3 |
| 20260506092348 | 32 | 0 | 0.0 | 0.0 | 0.00 | 0.58 | 0.00 | 95 | 1018.0 |
| 20260506091916 | 32 | 0 | 0.0 | 0.0 | 0.00 | 0.58 | 0.00 | 95 | 1018.3 |
| 20260506091401 | 32 | 0 | 0.0 | 0.0 | 0.00 | 0.58 | 0.00 | 95 | 1018.3 |
| 20260506090411 | 32 | 0 | 0.0 | 0.0 | 0.00 | 0.58 | 0.00 | 95 | 1018.3 |
| 20260506085920 | 32 | 0 | 0.0 | 0.0 | 0.01 | 0.58 | 0.00 | 95 | 1018.2 |
| 20260506085520 | 32 | 0 | 0.0 | 0.0 | 0.01 | 0.58 | 0.00 | 95 | 1018.2 |
| 20260506084635 | 32 | 0 | 0.0 | 0.0 | 0.01 | 0.58 | 0.00 | 95 | 1018.2 |
| 20260506083710 | 32 | 0 | 0.0 | 0.0 | 0.01 | 0.59 | 0.00 | 95 | 1018.3 |
| 20260506082908 | 32 | 0 | 0.0 | 0.0 | 0.01 | 0.59 | 0.00 | 95 | 1018.3 |
| 20260506082000 | 32 | 0 | 0.0 | 0.0 | 0.01 | 0.60 | 0.00 | 95 | 1018.3 |
| 20260506081928 | 32 | 0 | 0.0 | 0.0 | 0.01 | 0.60 | 0.00 | 95 | 1018.3 |
| 20260506081108 | 32 | 0 | 0.0 | 0.0 | 0.01 | 0.61 | 0.00 | 95 | 1018.4 |
| 20260506080359 | 32 | 0 | 0.0 | 0.0 | 0.01 | 0.62 | 0.00 | 95 | 1018.3 |
| 20260506080113 | 32 | 0 | 0.0 | 0.0 | 0.01 | 0.62 | 0.00 | 95 | 1018.3 |
| 20260506073433 | 32 | 22 | 1.0 | 2.0 | 0.00 | 0.61 | 0.00 | 95 | 1018.4 |
| 20260506072533 | 32 | 0 | 1.0 | 4.0 | 0.00 | 0.61 | 0.00 | 95 | 1018.1 |
| 20260506071559 | 32 | 22 | 2.0 | 3.0 | 0.00 | 0.61 | 0.00 | 94 | 1018.0 |
| 20260506070658 | 32 | 0 | 2.0 | 5.0 | 0.00 | 0.61 | 0.00 | 95 | 1018.1 |
| 20260506062224 | 33 | 0 | 3.0 | 6.0 | 0.01 | 0.61 | 0.00 | 94 | 1017.7 |
| 20260506061333 | 33 | 0 | 2.0 | 7.0 | 0.01 | 0.61 | 0.00 | 94 | 1017.5 |
| 20260506060448 | 33 | 0 | 1.0 | 3.0 | 0.01 | 0.61 | 0.00 | 94 | 1017.3 |
| 20260506051041 | 33 | 0 | 1.0 | 2.0 | 0.01 | 0.60 | 0.00 | 94 | 1016.4 |
| 20260506050121 | 33 | 0 | 0.0 | 1.0 | 0.01 | 0.60 | 0.00 | 94 | 1016.3 |
| 20260506044413 | 33 | 0 | 0.0 | 2.0 | 0.01 | 0.60 | 0.00 | 94 | 1016.3 |
| 20260506042508 | 33 | 0 | 0.0 | 0.0 | 0.00 | 0.59 | 0.00 | 94 | 1016.3 |
| 20260506041541 | 33 | 0 | 0.0 | 0.0 | 0.00 | 0.59 | 0.00 | 94 | 1016.1 |
| 20260506040721 | 33 | 0 | 0.0 | 1.0 | 0.00 | 0.59 | 0.00 | 94 | 1015.9 |
| 20260506035808 | 33 | 0 | 0.0 | 1.0 | 0.00 | 0.59 | 0.00 | 94 | 1015.8 |
| 20260506034953 | 33 | 0 | 0.0 | 0.0 | 0.00 | 0.59 | 0.00 | 94 | 1015.8 |
| 20260506034504 | 33 | 0 | 0.0 | 0.0 | 0.01 | 0.59 | 0.00 | 94 | 1015.8 |
| 20260506034058 | 33 | 0 | 0.0 | 0.0 | 0.01 | 0.59 | 0.00 | 94 | 1015.8 |
| 20260506033118 | 33 | 0 | 0.0 | 2.0 | 0.01 | 0.59 | 0.00 | 94 | 1015.6 |
| 20260506032301 | 33 | 0 | 0.0 | 1.0 | 0.01 | 0.59 | 0.00 | 94 | 1015.5 |
| 20260506031313 | 33 | 0 | 0.0 | 1.0 | 0.01 | 0.61 | 0.00 | 94 | 1015.5 |
| 20260506025506 | 33 | 315 | 1.0 | 2.0 | 0.01 | 0.62 | 0.00 | 94 | 1015.0 |
| 20260506025401 | 33 | 315 | 1.0 | 2.0 | 0.01 | 0.62 | 0.00 | 94 | 1015.0 |
| 20260506024443 | 33 | 0 | 0.0 | 1.0 | 0.00 | 0.62 | 0.00 | 94 | 1014.7 |
| 20260506023917 | 33 | 0 | 0.0 | 3.0 | 0.00 | 0.63 | 0.00 | 94 | 1014.5 |
| 20260506023633 | 33 | 0 | 0.0 | 3.0 | 0.00 | 0.63 | 0.00 | 94 | 1014.5 |
| 20260506023007 | 33 | 0 | 0.0 | 1.0 | 0.00 | 0.63 | 0.00 | 94 | 1014.4 |
| 20260506022828 | 33 | 0 | 0.0 | 1.0 | 0.00 | 0.63 | 0.00 | 94 | 1014.4 |
| 20260506021913 | 33 | 0 | 0.0 | 2.0 | 0.00 | 0.63 | 0.00 | 94 | 1014.0 |
| 20260506020933 | 33 | 0 | 1.0 | 3.0 | 0.00 | 0.63 | 0.00 | 94 | 1013.7 |
| 20260506015953 | 33 | 292 | 1.0 | 2.0 | 0.00 | 0.63 | 0.00 | 94 | 1013.7 |
| 20260506015916 | 33 | 338 | 1.0 | 3.0 | 0.00 | 0.63 | 0.00 | 94 | 1013.6 |
| 20260506015058 | 33 | 338 | 1.0 | 3.0 | 0.00 | 0.63 | 0.00 | 94 | 1013.6 |
| 20260506014937 | 33 | 338 | 1.0 | 2.0 | 0.00 | 0.63 | 0.00 | 94 | 1013.4 |
| 20260506014134 | 33 | 338 | 1.0 | 2.0 | 0.00 | 0.63 | 0.00 | 94 | 1013.4 |
| 20260506013919 | 33 | 0 | 0.0 | 3.0 | 0.00 | 0.63 | 0.00 | 94 | 1013.2 |
| 20260506013241 | 33 | 0 | 0.0 | 3.0 | 0.00 | 0.63 | 0.00 | 94 | 1013.2 |
| 20260506012438 | 33 | 315 | 1.0 | 2.0 | 0.01 | 0.63 | 0.00 | 94 | 1013.0 |
| 20260506011533 | 33 | 0 | 1.0 | 2.0 | 0.01 | 0.63 | 0.00 | 94 | 1012.8 |
| 20260506010658 | 33 | 0 | 1.0 | 2.0 | 0.01 | 0.63 | 0.00 | 94 | 1012.9 |
| 20260506005749 | 33 | 0 | 2.0 | 3.0 | 0.01 | 0.63 | 0.00 | 94 | 1012.7 |
| 20260506004833 | 33 | 0 | 2.0 | 4.0 | 0.01 | 0.63 | 0.00 | 94 | 1012.5 |
| 20260506004031 | 33 | 338 | 2.0 | 3.0 | 0.01 | 0.63 | 0.00 | 94 | 1012.7 |
| 20260506003309 | 33 | 338 | 2.0 | 4.0 | 0.01 | 0.63 | 0.00 | 94 | 1012.5 |
| 20260506003221 | 33 | 338 | 2.0 | 4.0 | 0.01 | 0.63 | 0.00 | 94 | 1012.5 |
| 20260506002233 | 33 | 0 | 1.0 | 4.0 | 0.00 | 0.62 | 0.00 | 94 | 1012.4 |
| 20260506001418 | 33 | 315 | 2.0 | 4.0 | 0.00 | 0.62 | 0.00 | 94 | 1012.3 |
| 20260506000538 | 33 | 292 | 1.0 | 4.0 | 0.00 | 0.62 | 0.00 | 94 | 1012.3 |
| 20260505235604 | 33 | 0 | 1.0 | 3.0 | 0.00 | 0.62 | 0.00 | 94 | 1012.1 |
| 20260505234653 | 33 | 315 | 1.0 | 2.0 | 0.00 | 0.62 | 0.00 | 94 | 1011.9 |
| 20260505233818 | 33 | 0 | 2.0 | 4.0 | 0.00 | 0.62 | 0.00 | 94 | 1011.7 |
| 20260505232825 | 33 | 0 | 2.0 | 5.0 | 0.00 | 0.62 | 0.00 | 94 | 1011.6 |
| 20260505231839 | 33 | 338 | 3.0 | 6.0 | 0.00 | 0.62 | 0.00 | 94 | 1012.0 |
| 20260505230958 | 33 | 0 | 2.0 | 6.0 | 0.01 | 0.62 | 0.00 | 94 | 1011.6 |
| 20260505230018 | 33 | 338 | 2.0 | 4.0 | 0.01 | 0.63 | 0.00 | 94 | 1011.8 |
| 20260505225126 | 33 | 338 | 3.0 | 5.0 | 0.01 | 0.64 | 0.00 | 93 | 1011.8 |
| 20260505224318 | 33 | 0 | 3.0 | 7.0 | 0.01 | 0.65 | 0.00 | 93 | 1011.6 |
| 20260505223338 | 33 | 338 | 3.0 | 10.0 | 0.01 | 0.65 | 0.00 | 93 | 1011.0 |
| 20260505222431 | 33 | 0 | 5.0 | 12.0 | 0.01 | 0.65 | 0.00 | 93 | 1010.9 |
| 20260505221613 | 33 | 0 | 7.0 | 15.0 | 0.01 | 0.65 | 0.00 | 93 | 1011.0 |
| 20260505220633 | 34 | 0 | 6.0 | 14.0 | 0.01 | 0.64 | 0.00 | 93 | 1010.7 |
| 20260505215658 | 34 | 0 | 4.0 | 9.0 | 0.02 | 0.64 | 0.00 | 93 | 1010.6 |
| 20260505214748 | 35 | 0 | 7.0 | 16.0 | 0.04 | 0.64 | 0.00 | 93 | 1010.4 |
| 20260505213901 | 35 | 0 | 6.0 | 12.0 | 0.05 | 0.64 | 0.00 | 93 | 1010.2 |
| 20260505212033 | 35 | 0 | 5.0 | 13.0 | 0.07 | 0.64 | 0.00 | 93 | 1010.1 |
| 20260505211138 | 35 | 0 | 7.0 | 17.0 | 0.06 | 0.63 | 0.00 | 93 | 1010.4 |
| 20260505210243 | 34 | 0 | 5.0 | 11.0 | 0.06 | 0.62 | 0.00 | 93 | 1010.4 |
| 20260505205443 | 34 | 0 | 5.0 | 10.0 | 0.07 | 0.60 | 0.00 | 92 | 1010.2 |
| 20260505204458 | 34 | 0 | 3.0 | 11.0 | 0.07 | 0.60 | 0.00 | 92 | 1010.2 |
| 20260505203553 | 35 | 0 | 5.0 | 9.0 | 0.07 | 0.60 | 0.00 | 92 | 1010.4 |
| 20260505202701 | 35 | 0 | 4.0 | 9.0 | 0.07 | 0.59 | 0.00 | 91 | 1010.5 |
| 20260505201803 | 35 | 0 | 6.0 | 13.0 | 0.06 | 0.58 | 0.00 | 90 | 1010.5 |
| 20260505200819 | 38 | 0 | 5.0 | 11.0 | 0.07 | 0.58 | 0.00 | 91 | 1010.6 |
| 20260505200013 | 38 | 0 | 4.0 | 10.0 | 0.05 | 0.55 | 0.00 | 92 | 1010.4 |